TimeCST,TemperatureF,Dew PointF,Humidity,Sea Level PressureIn,VisibilityMPH,Wind Direction,Wind SpeedMPH,Gust SpeedMPH,PrecipitationIn,Events,Conditions,WindDirDegrees,DateUTC
12:15 AM,30.2,26.6,86,29.96,10.0,NE,8.1,-,N/A,,Overcast,40,2013-02-27 06:15:00
12:35 AM,30.6,26.6,85,29.96,10.0,NE,6.9,-,N/A,,Overcast,50,2013-02-27 06:35:00
12:55 AM,30.2,26.6,86,29.96,10.0,NE,9.2,-,N/A,,Overcast,40,2013-02-27 06:55:00
1:15 AM,29.3,25.7,86,29.96,10.0,NE,6.9,-,N/A,,Scattered Clouds,40,2013-02-27 07:15:00
1:35 AM,29.3,25.7,86,29.96,10.0,NE,8.1,-,N/A,,Mostly Cloudy,40,2013-02-27 07:35:00
1:55 AM,29.1,25.7,87,29.96,10.0,NNE,8.1,-,N/A,,Overcast,30,2013-02-27 07:55:00
2:15 AM,29.3,25.5,86,29.95,10.0,NNE,10.4,-,N/A,,Overcast,30,2013-02-27 08:15:00
2:35 AM,29.7,25.7,85,29.95,10.0,NNE,10.4,-,N/A,,Overcast,30,2013-02-27 08:35:00
2:55 AM,29.8,25.7,85,29.95,10.0,NNE,9.2,-,N/A,,Overcast,30,2013-02-27 08:55:00
3:15 AM,29.8,25.7,85,29.95,10.0,NNE,9.2,-,N/A,,Overcast,30,2013-02-27 09:15:00
3:35 AM,29.3,25.5,86,29.95,10.0,NNE,8.1,-,N/A,,Mostly Cloudy,30,2013-02-27 09:35:00
3:55 AM,29.1,25.3,86,29.95,10.0,NNE,9.2,-,N/A,,Scattered Clouds,30,2013-02-27 09:55:00
4:15 AM,28.9,24.8,84,29.94,10.0,NNE,9.2,-,N/A,,Scattered Clouds,30,2013-02-27 10:15:00
4:35 AM,27.9,23.9,85,29.94,10.0,NNE,8.1,-,N/A,,Clear,20,2013-02-27 10:35:00
4:55 AM,27.5,23.2,84,29.94,10.0,NNE,8.1,-,N/A,,Clear,20,2013-02-27 10:55:00
5:15 AM,27.3,22.5,82,29.94,10.0,NNE,6.9,-,N/A,,Clear,20,2013-02-27 11:15:00
5:35 AM,27.1,21.9,81,29.94,10.0,North,6.9,-,N/A,,Clear,10,2013-02-27 11:35:00
5:55 AM,27.1,21.7,80,29.94,10.0,NNE,6.9,-,N/A,,Clear,20,2013-02-27 11:55:00
6:15 AM,27.1,21.6,80,29.94,10.0,North,6.9,-,N/A,,Clear,10,2013-02-27 12:15:00
6:55 AM,26.4,20.7,79,29.94,10.0,North,5.8,-,N/A,,Clear,360,2013-02-27 12:55:00
7:15 AM,26.6,20.8,79,29.94,10.0,North,5.8,-,N/A,,Clear,10,2013-02-27 13:15:00
7:35 AM,27.1,21.2,78,29.94,10.0,NNE,5.8,-,N/A,,Clear,20,2013-02-27 13:35:00
7:55 AM,27.9,21.2,76,29.94,10.0,NNE,6.9,-,N/A,,Clear,30,2013-02-27 13:55:00
8:15 AM,27.9,20.5,74,29.95,10.0,NNE,8.1,-,N/A,,Clear,30,2013-02-27 14:15:00
8:35 AM,28.0,20.7,74,29.95,10.0,NNE,8.1,-,N/A,,Scattered Clouds,30,2013-02-27 14:35:00
9:15 AM,30.0,22.6,74,29.96,10.0,NNE,10.4,-,N/A,,Overcast,30,2013-02-27 15:15:00
9:35 AM,30.7,23.4,74,29.95,10.0,NE,10.4,16.1,N/A,,Overcast,40,2013-02-27 15:35:00
9:55 AM,30.9,23.9,75,29.96,10.0,NE,10.4,17.3,N/A,,Overcast,40,2013-02-27 15:55:00
10:15 AM,30.9,23.9,75,29.96,10.0,NNE,11.5,16.1,N/A,,Overcast,30,2013-02-27 16:15:00
10:35 AM,30.7,24.6,78,29.96,10.0,ENE,8.1,-,N/A,,Overcast,60,2013-02-27 16:35:00
10:55 AM,30.2,24.6,80,29.96,10.0,ENE,12.7,20.7,N/A,,Overcast,60,2013-02-27 16:55:00
11:15 AM,30.0,24.8,81,29.96,10.0,ENE,12.7,19.6,N/A,,Overcast,70,2013-02-27 17:15:00
11:35 AM,30.2,24.6,80,29.96,10.0,NE,12.7,20.7,N/A,,Overcast,50,2013-02-27 17:35:00
11:55 AM,30.0,24.4,80,29.96,10.0,ENE,9.2,19.6,N/A,,Overcast,70,2013-02-27 17:55:00
12:15 PM,30.2,24.3,79,29.97,10.0,ENE,15.0,21.9,N/A,,Overcast,70,2013-02-27 18:15:00
12:35 PM,30.2,23.7,77,29.97,10.0,NE,11.5,-,N/A,,Overcast,50,2013-02-27 18:35:00
12:55 PM,30.2,23.9,77,29.97,10.0,ENE,11.5,17.3,N/A,,Overcast,60,2013-02-27 18:55:00
1:15 PM,31.3,23.9,74,29.96,10.0,ENE,16.1,19.6,N/A,,Overcast,60,2013-02-27 19:15:00
1:35 PM,31.3,23.9,74,29.96,10.0,ENE,13.8,21.9,N/A,,Overcast,70,2013-02-27 19:35:00
1:55 PM,32.0,23.9,72,29.96,10.0,ENE,13.8,21.9,N/A,,Mostly Cloudy,70,2013-02-27 19:55:00
2:15 PM,32.0,23.9,72,29.96,10.0,ENE,11.5,17.3,N/A,,Mostly Cloudy,60,2013-02-27 20:15:00
2:35 PM,32.5,23.9,70,29.97,10.0,ENE,12.7,19.6,N/A,,Overcast,60,2013-02-27 20:35:00
2:55 PM,32.0,23.0,69,29.97,10.0,ENE,11.5,17.3,N/A,,Overcast,70,2013-02-27 20:55:00
3:15 PM,32.0,23.4,70,29.98,10.0,ENE,8.1,19.6,N/A,,Overcast,70,2013-02-27 21:15:00
3:35 PM,32.7,23.7,69,29.97,10.0,East,11.5,20.7,N/A,,Overcast,80,2013-02-27 21:35:00
3:55 PM,32.5,23.7,70,29.98,10.0,East,10.4,-,N/A,,Mostly Cloudy,80,2013-02-27 21:55:00
4:15 PM,33.1,24.4,71,29.98,10.0,East,11.5,17.3,N/A,,Clear,80,2013-02-27 22:15:00
4:35 PM,32.5,24.4,72,29.99,10.0,ENE,10.4,-,N/A,,Scattered Clouds,60,2013-02-27 22:35:00
4:55 PM,32.0,24.1,73,29.99,10.0,ENE,8.1,-,N/A,,Scattered Clouds,70,2013-02-27 22:55:00
5:15 PM,32.0,24.6,74,29.99,10.0,ENE,8.1,-,N/A,,Scattered Clouds,60,2013-02-27 23:15:00
5:35 PM,32.0,25.2,76,30.00,10.0,NE,8.1,-,N/A,,Mostly Cloudy,50,2013-02-27 23:35:00
5:55 PM,32.0,24.8,75,30.01,10.0,NE,5.8,-,N/A,,Overcast,40,2013-02-27 23:55:00
6:15 PM,31.8,25.2,76,30.01,10.0,NE,6.9,-,N/A,,Overcast,40,2013-02-28 00:15:00
6:35 PM,31.6,25.3,78,30.01,10.0,NNE,4.6,-,N/A,,Overcast,30,2013-02-28 00:35:00
6:55 PM,31.8,24.6,75,30.01,10.0,NNE,10.4,-,N/A,,Overcast,20,2013-02-28 00:55:00
7:15 PM,32.5,21.7,64,30.02,10.0,NE,8.1,16.1,N/A,,Overcast,40,2013-02-28 01:15:00
7:35 PM,32.0,22.1,67,30.02,10.0,NNE,5.8,-,N/A,,Overcast,20,2013-02-28 01:35:00
7:55 PM,32.0,22.6,68,30.03,10.0,North,4.6,-,N/A,,Overcast,10,2013-02-28 01:55:00
8:15 PM,32.2,21.7,65,30.03,10.0,NNE,10.4,-,N/A,,Overcast,30,2013-02-28 02:15:00
8:35 PM,32.0,21.2,64,30.04,10.0,NE,11.5,18.4,N/A,,Overcast,40,2013-02-28 02:35:00
8:55 PM,32.0,21.6,65,30.04,10.0,NE,9.2,-,N/A,,Overcast,40,2013-02-28 02:55:00
9:15 PM,32.0,21.6,65,30.04,10.0,NE,10.4,-,N/A,,Overcast,40,2013-02-28 03:15:00
9:35 PM,31.6,21.6,66,30.04,10.0,NNE,6.9,-,N/A,,Overcast,30,2013-02-28 03:35:00
9:55 PM,31.1,21.7,68,30.04,10.0,NNE,8.1,-,N/A,,Overcast,30,2013-02-28 03:55:00
10:15 PM,31.1,22.1,69,30.05,10.0,NNE,8.1,-,N/A,,Overcast,30,2013-02-28 04:15:00
10:35 PM,31.1,21.9,69,30.05,10.0,NE,11.5,-,N/A,,Overcast,50,2013-02-28 04:35:00
10:55 PM,31.1,21.9,69,30.05,10.0,NE,9.2,-,N/A,,Overcast,50,2013-02-28 04:55:00
11:15 PM,30.9,21.7,69,30.06,10.0,NE,9.2,-,N/A,,Overcast,40,2013-02-28 05:15:00
11:55 PM,30.2,22.8,74,30.06,10.0,NE,9.2,-,N/A,,Overcast,50,2013-02-28 05:55:00